Regional Weather Roundup
Issued by NWS State College, PA

Home | Current Version | Previous Version | Graphics & Text | Print | Product List | Glossary On
Versions: 1 2 3 4 5 6 7 8 9 10 11 12 13 14 15 16 17 18 19 20 21 22 23 24 25 26 27 28 29 30 31 32 33 34 35 36 37 38 39 40 41 42 43 44 45 46 47 48 49 50
000
ASUS41 KCTP 271303
RWRCTP

REGIONAL WEATHER ROUNDUP
NATIONAL WEATHER SERVICE STATE COLLEGE PA
800 AM EST FRI FEB 27 2015

Note: "fair" indicates few or no clouds below 12,000 feet with no
significant weather and/or obstructions to visibility.

* = STATION THAT DOES NOT REPORT PRECIPITATION /E.G. RAIN...SNOW...ETC/
    THUNDER OR FOG.

PAZ002>004-007>009-013>016-020>023-029>032-271400-
WESTERN PENNSYLVANIA

CITY           SKY/WX    TMP DP  RH WIND       PRES   REMARKS
ERIE           CLEAR     -8 -12  83 S5        30.46R WCI -19
MEADVILLE        N/A     -3  -7  82 CALM      30.37R
FRANKLIN*      SUNNY     -2  -8  78 CALM      30.36R
NEW CASTLE     FAIR      -1  -5  83 CALM      30.45R
BEAVER COUNTY  SUNNY      1  -2  85 NW5       30.39  WCI  -8
BUTLER*        SUNNY      1   0  92 NW3       30.40R
PITTSBURGH INT MOSUNNY    4   0  83 NW6       30.40R WCI  -7
PITTSBURGH     MOSUNNY    5  -1  76 NW3       30.38R
INDIANA*       CLOUDY     0  -4  85 CALM      30.40R
LATROBE        MOSUNNY    1   0  92 CALM      30.41R
WASHINGTON CO* CLOUDY     5   1  85 CALM      30.41R
$$

PAZ004>006-010>012-017>019-024>028-033>037-041-042-045-046-049>053-271400-
CENTRAL PENNSYLVANIA

CITY           SKY/WX    TMP DP  RH WIND       PRES   REMARKS
BRADFORD       CLOUDY    -1  -6  79 W3        30.25R
DUBOIS         SUNNY      0  -3  87 W5        30.29R WCI -10
CLEARFIELD     SUNNY      4   1  88 CALM      30.32R
JOHNSTOWN      LGT SNOW   4   0  83 NW5       30.24R VSB 3/4 WCI  -5
ALTOONA        MOSUNNY    7   0  73 N3        30.33R
STATE COLLEGE  NOT AVBL
WILLIAMSPORT   SUNNY     12   1  61 CALM      30.40R
SELINSGROVE    SUNNY     14   3  61 N6        30.40R WCI   5
FT INDIANTOWN  SUNNY     14   4  65 VRB1      30.38R
CAPITAL CITY   MOSUNNY   16   4  59 N6        30.39R WCI   7
HARRISBURG     CLOUDY    18   7  62 N8        30.39R WCI   8
YORK           CLOUDY    19   9  65 NW7       30.37R WCI  10
$$

PAZ038>040-043-044-047-048-054-055-060>062-067>071-271400-
EASTERN PENNSYLVANIA

CITY           SKY/WX    TMP DP  RH WIND       PRES   REMARKS
SCRANTON       SUNNY      9  -2  61 NE5       30.33R WCI   1
MOUNT POCONO   SUNNY      6  -3  66 N8        30.19R WCI  -7
ALLENTOWN      CLOUDY    15   2  56 N7        30.36R WCI   5
QUAKERTOWN*    CLOUDY    16   7  67 N6        30.34R WCI   7
READING        CLOUDY    16   4  59 N9        30.37R WCI   4
LANCASTER      CLOUDY    18   9  68 N8        30.36R WCI   8
COATESVILLE    FLURRIES  19  14  79 N7        30.32R WCI  10
POTTSTOWN      CLOUDY    18   8  65 NW8       30.37R WCI   8
BLUE BELL      PTSUNNY   21  12  68 CALM      30.35R
DOYLESTOWN     CLOUDY    17   8  67 N6        30.34R WCI   9
WILLOW GROVE   NOT AVBL
NORTH PHILA    LGT SNOW  22  11  62 NE8       30.38R WCI  12
PHILADELPHIA   LGT SNOW  22  16  78 N8        30.37R WCI  12
$$


USA.gov is the U.S. government's official web portal to all federal, state and local government web resources and services.